Weather in Washington

United States     38°53′58″N   77°02′11″W
temp.,
°C
wind,
m/s
gust,
m/s
humid.,
%
clouds,
%
prec.,
mm/h
press.,
hPa
HPBL,
m
21 june, mon
mon2123:00+25s3979100 0.0 1009445
02:00+22ssw3892100 0.0 1008314
05:00+22ssw2898100 0.0 1007303
08:00+23ssw3590100 0.0 1007359
11:00+29s2262100 0.0 1006643
14:00+33ssw254334 0.0 10042345
17:00+29sw7106189 0.8 10031002
20:00+23ese249354 4.5 1004165
22 june, tue
tue2223:00+22sw2497100 8.4 1006123
02:00+22nw31093100 8.8 1006432
05:00+20nw269392 0.0 1007334
08:00+20nnw4876100 0.0 1010560
11:00+17nnw2797100 3.9 1011407
14:00+17n2595100 11.3 1012427
17:00+21nnw367592 0.3 10121028
20:00+19nnw1273100 0.5 101438
23 june, wed
wed2323:00+16n2673100 0.0 1017157
02:00+14nnw23700 0.0 101965
05:00+12nnw22730 0.0 102052
08:00+16n23635 0.0 1022236
11:00+20nne23440 0.0 10241337
14:00+23n22383 0.0 10231920
17:00+23n21395 0.0 10231928
20:00+19ese2558100 0.0 1025221
24 june, thu
thu2423:00+17ese1157100 0.0 102625
02:00+15ese11646 0.0 102620
05:00+14ssw00757 0.0 102711
08:00+18ese12698 0.0 1028222
11:00+23ese35450 0.0 10271299
14:00+25ese33370 0.0 10271607
17:00+25ese44370 0.0 10251520
20:00+21e37610 0.0 1026408
25 june, fri
fri2523:00+18ese288290 0.0 1025284
02:00+18ene2589100 0.1 1024252
05:00+18ene2690100 0.1 1023292
08:00+19nne2389100 0.1 1024256
11:00+20ne2387100 0.0 1024357
14:00+24ese2379100 0.4 1021650
17:00+24sse2585100 2.4 1020629
20:00+22sse3894100 3.9 1020385